Date String (YYYY-MM-DD hh:mm:ss) UTC,Instrument flags,absolute air pressure of the measurement (hPa),sample flow rate (lpm),inlet stack bypass flow (lpm),air temperature of the measurement (°C),ambient temperature measured by the external sensor (°C),aerosol sample conditioner tube jacket temperature (°C),OPC LED temperature (°C),internal box temperature (°C),relative humidity of the measurement (%),span deviation,mass concentration of particles derived from Lorenz-Mie calculation of OPC scattering (μg/m³),mass concentration of particles derived from Lorenz-Mie calculation of OPC scattering (μg/m³),mass concentration of particles derived from Lorenz-Mie calculation of OPC scattering (μg/m³)
DateTimeUTC,F1_M11,P_M11,Q1_M11,Q2_M11,T1_M11,T2_M11,T3_M11,T4_M11,T5_M11,U1_M11,ZSPAN_M11,X0_M11,X2_M11,X1_M11
2024-01-11 22:00:00,SystemResetWarning,0816.9,4.99,000.00,018.9,017.8,000.0,027.4,020.0,7.9,0000.0,0012.31,0004.93,0003.83
2024-01-11 22:01:00,SystemResetWarning,0816.9,5.01,000.00,018.9,017.8,000.0,027.4,020.0,8.0,0002.7,0012.50,0004.92,0003.83
2024-01-11 22:02:00,SystemResetWarning,0816.9,5.01,000.00,018.9,017.8,000.0,027.4,020.0,7.9,0004.2,0012.84,0004.93,0003.83
2024-01-11 22:03:00,SystemResetWarning,0816.9,5.00,000.00,018.8,017.7,000.0,027.4,020.0,7.9,0004.6,0012.87,0004.91,0003.84
2024-01-11 22:04:00,SystemResetWarning,0816.9,5.00,000.00,018.8,017.7,000.0,027.4,020.0,7.9,0001.2,0012.79,0004.88,0003.85
2024-01-11 22:05:00,SystemResetWarning,0816.9,4.99,000.00,018.8,017.7,000.0,027.4,020.0,7.9,0001.3,0012.57,0004.86,0003.86
2024-01-11 22:06:00,SystemResetWarning,0816.9,5.00,000.00,018.8,017.7,000.0,027.4,020.0,7.9,0003.0,0013.13,0004.88,0003.88
2024-01-11 22:07:00,SystemResetWarning,0816.9,5.01,000.00,018.8,017.8,000.0,027.4,020.2,7.9,0001.4,0013.59,0004.88,0003.89
2024-01-11 22:08:00,SystemResetWarning,0817.0,5.00,000.00,018.9,018.4,000.0,027.4,020.6,7.9,0004.5,0013.58,0004.87,0003.91
2024-01-11 22:09:00,SystemResetWarning,0816.9,5.00,000.00,019.1,019.1,000.0,027.4,020.9,7.8,0004.4,0013.26,0004.87,0003.93
2024-01-11 22:10:00,SystemResetWarning,0816.9,5.00,000.00,019.2,019.1,000.0,027.4,020.6,7.7,0003.9,0013.20,0004.88,0003.95
2024-01-11 22:11:00,SystemResetWarning,0816.9,4.99,000.00,019.1,018.9,000.0,027.4,020.2,7.7,0003.4,0013.05,0004.86,0003.96
2024-01-11 22:12:00,SystemResetWarning,0816.9,4.99,000.00,019.1,018.7,000.0,027.4,020.0,7.7,0003.5,0012.52,0004.86,0003.99
2024-01-11 22:13:00,SystemResetWarning,0816.9,5.01,000.00,019.0,018.5,000.0,027.4,020.0,7.7,0003.4,0011.77,0004.89,0004.02
2024-01-11 22:14:00,SystemResetWarning,0817.0,5.01,000.00,019.0,018.3,000.0,027.4,020.0,7.8,0002.9,0011.13,0004.89,0004.04
2024-01-11 22:15:00,SystemResetWarning,0817.0,5.00,000.00,019.0,018.2,000.0,027.4,020.0,7.8,0003.3,0011.89,0004.94,0004.05
2024-01-11 22:16:00,SystemResetWarning,0817.0,5.00,000.00,019.0,018.1,000.0,027.4,020.0,7.8,0003.5,0011.79,0004.99,0004.06
2024-01-11 22:17:00,SystemResetWarning,0817.0,5.00,000.00,018.9,018.1,000.0,027.4,020.0,7.8,0003.2,0011.04,0005.00,0004.05
2024-01-11 22:18:00,SystemResetWarning,0817.0,4.99,000.00,018.9,018.0,000.0,027.4,020.0,7.8,0002.9,0010.54,0005.00,0004.05
2024-01-11 22:19:00,SystemResetWarning,0817.0,4.99,000.00,018.9,017.9,000.0,027.4,020.0,7.8,0003.1,0009.93,0004.99,0004.05
2024-01-11 22:20:00,SystemResetWarning,0817.0,5.00,000.00,018.9,017.8,000.0,027.4,020.0,7.8,0002.9,0009.94,0004.97,0004.04
2024-01-11 22:21:00,SystemResetWarning,0817.0,5.01,000.00,018.9,017.8,000.0,027.4,020.0,7.8,0002.8,0010.26,0004.93,0004.04
2024-01-11 22:22:00,SystemResetWarning,0817.0,5.00,000.00,018.9,017.8,000.0,027.4,020.0,7.8,0001.8,0010.57,0004.95,0004.03
2024-01-11 22:23:00,SystemResetWarning,0817.1,4.99,000.00,018.9,017.8,000.0,027.4,020.0,7.8,0000.0,0011.01,0004.96,0004.02
2024-01-11 22:24:00,SystemResetWarning,0817.1,4.99,000.00,018.9,017.7,000.0,027.4,020.0,7.7,0000.0,0011.34,0004.95,0004.01
2024-01-11 22:25:00,SystemResetWarning,0817.1,5.01,000.00,018.8,017.7,000.0,027.4,020.0,7.6,0000.0,0012.31,0004.96,0004.00
2024-01-11 22:26:00,SystemResetWarning,0817.1,5.01,000.00,018.8,017.7,000.0,027.4,020.0,7.5,0000.0,0012.09,0004.96,0003.98
2024-01-11 22:27:00,SystemResetWarning,0817.1,5.00,000.00,018.8,017.7,000.0,027.4,020.0,7.5,0000.7,0012.02,0004.91,0003.97
2024-01-11 22:28:00,SystemResetWarning,0817.1,5.01,000.00,018.8,017.8,000.0,027.4,020.2,7.5,0001.0,0012.58,0004.92,0003.97
2024-01-11 22:29:00,SystemResetWarning,0817.1,5.00,000.00,018.9,018.5,000.0,027.3,020.7,7.5,0000.5,0012.90,0004.89,0003.98
2024-01-11 22:30:00,SystemResetWarning,0817.2,4.99,000.00,019.1,019.1,000.0,027.3,020.8,7.5,0000.8,0013.30,0004.88,0003.97
2024-01-11 22:31:00,SystemResetWarning,0817.2,4.99,000.00,019.1,019.1,000.0,027.3,020.5,7.5,0000.0,0013.37,0004.91,0003.98
2024-01-11 22:32:00,SystemResetWarning,0817.2,5.01,000.00,019.1,018.9,000.0,027.3,020.2,7.5,0000.0,0013.74,0004.95,0003.99
2024-01-11 22:33:00,SystemResetWarning,0817.2,5.01,000.00,019.0,018.7,000.0,027.3,020.0,7.6,0000.0,0014.71,0004.97,0003.99
2024-01-11 22:34:00,SystemResetWarning,0817.2,5.01,000.00,019.0,018.5,000.0,027.3,020.0,7.5,0001.3,0014.82,0004.95,0003.99
2024-01-11 22:35:00,SystemResetWarning,0817.2,5.00,000.00,019.0,018.4,000.0,027.4,020.0,7.5,0001.4,0014.59,0004.95,0004.00
2024-01-11 22:36:00,SystemResetWarning,0817.4,4.99,000.00,018.9,018.2,000.0,027.4,020.0,7.5,0002.8,0013.82,0004.94,0003.99
2024-01-11 22:37:00,SystemResetWarning,0817.3,4.99,000.00,018.9,018.1,000.0,027.4,020.0,7.5,0002.6,0013.44,0004.92,0003.99
2024-01-11 22:38:00,SystemResetWarning,0817.4,5.01,000.00,018.9,018.1,000.0,027.4,020.0,7.5,0002.1,0013.41,0004.93,0003.98
2024-01-11 22:39:00,SystemResetWarning,0817.4,5.00,000.00,018.9,018.0,000.0,027.4,020.0,7.5,0001.4,0012.89,0004.92,0003.98
2024-01-11 22:40:00,SystemResetWarning,0817.4,5.00,000.00,018.9,017.9,000.0,027.4,020.0,7.5,0001.3,0012.59,0004.93,0003.96
2024-01-11 22:41:00,SystemResetWarning,0817.3,5.00,000.00,018.9,017.9,000.0,027.4,020.0,7.5,0001.8,0012.07,0004.99,0003.95
2024-01-11 22:42:00,SystemResetWarning,0817.4,5.00,000.00,018.9,017.8,000.0,027.4,020.0,7.5,0001.7,0012.18,0004.99,0003.94
2024-01-11 22:43:00,SystemResetWarning,0817.4,5.00,000.00,018.8,017.8,000.0,027.4,020.0,7.5,0002.5,0011.94,0004.99,0003.92
2024-01-11 22:44:00,SystemResetWarning,0817.4,5.00,000.00,018.8,017.8,000.0,027.4,020.0,7.5,0003.2,0011.23,0004.98,0003.91
2024-01-11 22:45:00,SystemResetWarning,0817.4,5.00,000.00,018.8,017.8,000.0,027.4,020.0,7.6,0003.3,0010.59,0005.00,0003.91
2024-01-11 22:46:00,SystemResetWarning,0817.4,5.00,000.00,018.8,017.7,000.0,027.4,020.0,7.6,0003.6,0010.82,0005.03,0003.90
2024-01-11 22:47:00,SystemResetWarning,0817.4,5.00,000.00,018.8,017.7,000.0,027.4,020.0,7.6,0003.0,0010.86,0005.02,0003.90
2024-01-11 22:48:00,SystemResetWarning,0817.5,5.00,000.00,018.8,017.7,000.0,027.4,020.0,7.6,0003.4,0010.86,0005.05,0003.91
2024-01-11 22:49:00,SystemResetWarning,0817.5,5.00,000.00,018.9,017.9,000.0,027.4,020.3,7.6,0003.8,0011.73,0005.07,0003.92
2024-01-11 22:50:00,SystemResetWarning,0817.5,5.01,000.00,019.0,018.7,000.0,027.3,020.8,7.5,0003.5,0013.54,0005.09,0003.91
2024-01-11 22:51:00,SystemResetWarning,0817.5,4.99,000.00,019.1,019.2,000.0,027.3,020.8,7.5,0003.2,0013.53,0005.08,0003.92
2024-01-11 22:52:00,SystemResetWarning,0817.5,4.99,000.00,019.1,019.0,000.0,027.3,020.4,7.5,0003.1,0013.57,0005.04,0003.91
2024-01-11 22:53:00,SystemResetWarning,0817.5,5.01,000.00,019.1,018.8,000.0,027.3,020.2,7.5,0003.1,0014.16,0005.06,0003.91
2024-01-11 22:54:00,SystemResetWarning,0817.5,5.01,000.00,019.0,018.6,000.0,027.3,020.0,7.5,0002.6,0014.54,0005.04,0003.91
2024-01-11 22:55:00,SystemResetWarning,0817.5,5.00,000.00,019.0,018.5,000.0,027.3,020.0,7.5,0002.0,0014.01,0005.00,0003.91
2024-01-11 22:56:00,SystemResetWarning,0817.6,4.99,000.00,019.0,018.3,000.0,027.3,020.0,7.5,0001.8,0014.17,0004.98,0003.91
2024-01-11 22:57:00,SystemResetWarning,0817.5,5.00,000.00,018.9,018.2,000.0,027.4,020.0,7.5,0001.4,0014.37,0004.97,0003.91
2024-01-11 22:58:00,SystemResetWarning,0817.6,5.00,000.00,018.9,018.1,000.0,027.4,020.0,7.5,0001.6,0014.00,0004.97,0003.91
2024-01-11 22:59:00,SystemResetWarning,0817.6,4.99,000.00,018.9,018.1,000.0,027.4,020.0,7.5,0000.8,0014.45,0004.95,0003.90
